Time,TemperatureF,DewpointF,PressureIn,WindDirection,WindDirectionDegrees,WindSpeedMPH,WindSpeedGustMPH,Humidity,HourlyPrecipIn,Conditions,Clouds,dailyrainin,SoftwareType,DateUTC
2013-08-25 00:00:00,78.6,73.7,29.83,SSW,200,3.0,13.6,85,0.00,,CLR,0.00,VWS V14.01,2013-08-25 05:00:00,
2013-08-25 00:10:00,78.5,73.6,29.83,SSW,203,14.0,14.7,85,0.00,,CLR,0.00,VWS V14.01,2013-08-25 05:10:00,
2013-08-25 00:15:00,78.6,73.7,29.83,South,169,11.0,16.8,85,0.00,,CLR,0.00,VWS V14.01,2013-08-25 05:15:00,
2013-08-25 00:25:00,78.7,73.8,29.83,SSW,197,5.0,13.6,85,0.00,,CLR,0.00,VWS V14.01,2013-08-25 05:25:00,
2013-08-25 00:30:00,78.6,73.7,29.83,SSW,196,4.0,13.6,85,0.00,,CLR,0.00,VWS V14.01,2013-08-25 05:30:00,
2013-08-25 00:40:00,78.6,73.7,29.83,SSW,198,5.0,19.9,85,0.00,,CLR,0.00,VWS V14.01,2013-08-25 05:40:00,
2013-08-25 00:45:00,78.6,73.7,29.83,South,191,9.0,17.8,85,0.00,,CLR,0.00,VWS V14.01,2013-08-25 05:45:00,
2013-08-25 00:50:00,78.5,73.6,29.83,SSW,208,10.0,14.7,85,0.00,,CLR,0.00,VWS V14.01,2013-08-25 05:50:00,
2013-08-25 00:55:00,78.4,73.5,29.83,South,175,6.0,13.6,85,0.00,,CLR,0.00,VWS V14.01,2013-08-25 05:55:00,
2013-08-25 01:00:00,78.3,73.8,29.83,SSW,197,7.0,12.6,86,0.00,,CLR,0.00,VWS V14.01,2013-08-25 06:00:00,
2013-08-25 01:05:00,78.2,73.7,29.83,South,178,11.0,15.7,86,0.00,,CLR,0.00,VWS V14.01,2013-08-25 06:05:00,
2013-08-25 01:15:00,78.3,73.4,29.83,SSW,201,6.0,15.7,85,0.00,,CLR,0.00,VWS V14.01,2013-08-25 06:15:00,
2013-08-25 01:20:00,78.3,73.4,29.83,SW,219,7.0,13.6,85,0.00,,CLR,0.00,VWS V14.01,2013-08-25 06:20:00,
2013-08-25 01:25:00,78.1,73.6,29.84,SSW,195,8.0,10.5,86,0.00,,CLR,0.00,VWS V14.01,2013-08-25 06:25:00,
2013-08-25 01:35:00,78.0,73.5,29.83,SSW,213,5.0,13.6,86,0.00,,CLR,0.00,VWS V14.01,2013-08-25 06:35:00,
2013-08-25 01:40:00,78.0,73.5,29.83,South,181,11.0,14.7,86,0.00,,CLR,0.00,VWS V14.01,2013-08-25 06:40:00,
2013-08-25 01:45:00,78.1,73.2,29.83,SSW,198,9.0,16.8,85,0.00,,CLR,0.00,VWS V14.01,2013-08-25 06:45:00,
2013-08-25 01:55:00,78.1,73.2,29.83,WSW,244,4.0,13.6,85,0.00,,CLR,0.00,VWS V14.01,2013-08-25 06:55:00,
2013-08-25 02:00:00,78.1,73.2,29.84,South,186,5.0,14.7,85,0.00,,CLR,0.00,VWS V14.01,2013-08-25 07:00:00,
2013-08-25 02:10:00,78.2,73.3,29.83,SE,138,8.0,13.6,85,0.00,,CLR,0.00,VWS V14.01,2013-08-25 07:10:00,
2013-08-25 02:15:00,78.1,73.2,29.83,SW,231,6.0,12.6,85,0.00,,CLR,0.00,VWS V14.01,2013-08-25 07:15:00,
2013-08-25 02:20:00,78.1,73.2,29.84,SW,231,5.0,13.6,85,0.00,,CLR,0.00,VWS V14.01,2013-08-25 07:20:00,
2013-08-25 02:30:00,77.9,73.0,29.84,South,189,10.0,13.6,85,0.00,,CLR,0.00,VWS V14.01,2013-08-25 07:30:00,
2013-08-25 02:35:00,78.0,73.1,29.83,SSW,206,4.0,15.7,85,0.00,,CLR,0.00,VWS V14.01,2013-08-25 07:35:00,
2013-08-25 02:40:00,78.0,73.1,29.84,SSW,192,7.0,12.6,85,0.00,,CLR,0.00,VWS V14.01,2013-08-25 07:40:00,
2013-08-25 02:50:00,78.1,72.9,29.84,SSW,204,7.0,12.6,84,0.00,,CLR,0.00,VWS V14.01,2013-08-25 07:50:00,
2013-08-25 03:00:00,78.0,72.8,29.84,SSW,194,5.0,12.6,84,0.00,,CLR,0.00,VWS V14.01,2013-08-25 08:00:00,
2013-08-25 03:05:00,77.9,72.7,29.84,SSW,199,4.0,15.7,84,0.00,,CLR,0.00,VWS V14.01,2013-08-25 08:05:00,
2013-08-25 03:10:00,77.9,72.7,29.84,South,175,7.0,11.5,84,0.00,,CLR,0.00,VWS V14.01,2013-08-25 08:10:00,
2013-08-25 03:15:00,77.9,72.7,29.84,South,180,5.0,11.5,84,0.00,,CLR,0.00,VWS V14.01,2013-08-25 08:15:00,
2013-08-25 03:25:00,78.0,72.8,29.84,South,189,7.0,10.5,84,0.00,,CLR,0.00,VWS V14.01,2013-08-25 08:25:00,
2013-08-25 03:30:00,77.9,72.7,29.84,SE,146,11.0,16.8,84,0.00,,CLR,0.00,VWS V14.01,2013-08-25 08:30:00,
2013-08-25 03:40:00,77.9,72.7,29.84,SSW,211,9.0,13.6,84,0.00,,CLR,0.00,VWS V14.01,2013-08-25 08:40:00,
2013-08-25 03:50:00,78.0,72.8,29.84,SSW,197,4.0,10.5,84,0.00,,CLR,0.00,VWS V14.01,2013-08-25 08:50:00,
2013-08-25 03:55:00,77.8,72.6,29.84,SSW,205,5.0,12.6,84,0.00,,CLR,0.00,VWS V14.01,2013-08-25 08:55:00,
2013-08-25 04:05:00,77.7,72.5,29.84,SSW,199,6.0,10.5,84,0.00,,SCT120,0.00,VWS V14.01,2013-08-25 09:05:00,
2013-08-25 04:10:00,77.6,72.4,29.84,SSW,205,9.0,10.5,84,0.00,,SCT120,0.00,VWS V14.01,2013-08-25 09:10:00,
2013-08-25 04:15:00,77.6,72.4,29.84,South,169,7.0,10.5,84,0.00,,SCT120,0.00,VWS V14.01,2013-08-25 09:15:00,
2013-08-25 04:25:00,77.7,72.5,29.84,South,180,3.0,12.6,84,0.00,,SCT120,0.00,VWS V14.01,2013-08-25 09:25:00,
2013-08-25 04:35:00,77.7,72.1,29.84,SSW,205,7.0,11.5,83,0.00,,SCT120,0.00,VWS V14.01,2013-08-25 09:35:00,
2013-08-25 04:45:00,77.6,72.4,29.84,SW,226,4.0,12.6,84,0.00,,BKN120,0.00,VWS V14.01,2013-08-25 09:45:00,
2013-08-25 04:55:00,77.5,72.3,29.84,South,178,8.0,12.6,84,0.00,,BKN120,0.00,VWS V14.01,2013-08-25 09:55:00,
2013-08-25 05:05:00,77.5,72.3,29.84,SW,217,9.0,12.6,84,0.00,,SCT120,0.00,VWS V14.01,2013-08-25 10:05:00,
2013-08-25 05:10:00,77.6,72.0,29.84,SSW,195,9.0,14.7,83,0.00,,SCT120,0.00,VWS V14.01,2013-08-25 10:10:00,
2013-08-25 05:20:00,77.6,72.0,29.84,SSW,203,7.0,14.7,83,0.00,,SCT120,0.00,VWS V14.01,2013-08-25 10:20:00,
2013-08-25 05:25:00,77.6,72.0,29.84,SSW,202,6.0,12.6,83,0.00,,CLR,0.00,VWS V14.01,2013-08-25 10:25:00,
2013-08-25 05:35:00,77.6,72.0,29.84,South,186,10.0,14.7,83,0.00,,CLR,0.00,VWS V14.01,2013-08-25 10:35:00,
2013-08-25 05:40:00,77.6,72.0,29.84,SSW,195,5.0,12.6,83,0.00,,CLR,0.00,VWS V14.01,2013-08-25 10:40:00,
2013-08-25 05:45:00,77.5,71.9,29.85,SSW,193,8.0,11.5,83,0.00,,CLR,0.00,VWS V14.01,2013-08-25 10:45:00,
2013-08-25 05:50:00,77.4,71.8,29.84,SSW,196,9.0,13.6,83,0.00,,CLR,0.00,VWS V14.01,2013-08-25 10:50:00,
2013-08-25 05:55:00,77.3,72.1,29.85,SSW,198,9.0,11.5,84,0.00,,CLR,0.00,VWS V14.01,2013-08-25 10:55:00,
2013-08-25 06:05:00,77.2,72.0,29.85,SSW,208,5.0,14.7,84,0.00,,CLR,0.00,VWS V14.01,2013-08-25 11:05:00,
2013-08-25 06:15:00,77.0,71.8,29.85,SSW,196,7.0,12.6,84,0.00,,CLR,0.00,VWS V14.01,2013-08-25 11:15:00,
2013-08-25 06:20:00,76.9,71.7,29.85,SW,225,8.0,13.6,84,0.00,,CLR,0.00,VWS V14.01,2013-08-25 11:20:00,
2013-08-25 06:30:00,76.9,71.7,29.84,SSW,206,8.0,13.6,84,0.00,,CLR,0.00,VWS V14.01,2013-08-25 11:30:00,
2013-08-25 06:35:00,76.9,71.7,29.85,SSW,194,3.0,14.7,84,0.00,,CLR,0.00,VWS V14.01,2013-08-25 11:35:00,
2013-08-25 06:40:00,76.8,71.6,29.84,South,191,6.0,12.6,84,0.00,,CLR,0.00,VWS V14.01,2013-08-25 11:40:00,
2013-08-25 06:45:00,76.7,71.9,29.84,South,186,9.0,12.6,85,0.00,,CLR,0.00,VWS V14.01,2013-08-25 11:45:00,
2013-08-25 06:50:00,76.7,71.9,29.85,South,178,7.0,12.6,85,0.00,,CLR,0.00,VWS V14.01,2013-08-25 11:50:00,
2013-08-25 07:00:00,76.6,71.8,29.85,South,188,7.0,22.0,85,0.00,,CLR,0.00,VWS V14.01,2013-08-25 12:00:00,
2013-08-25 07:05:00,76.6,71.8,29.85,SSE,167,11.0,11.5,85,0.00,,CLR,0.00,VWS V14.01,2013-08-25 12:05:00,
2013-08-25 07:10:00,76.6,71.8,29.85,SSW,194,7.0,12.6,85,0.00,,CLR,0.00,VWS V14.01,2013-08-25 12:10:00,
2013-08-25 07:15:00,76.7,71.9,29.85,South,184,12.0,13.6,85,0.00,,CLR,0.00,VWS V14.01,2013-08-25 12:15:00,
2013-08-25 07:20:00,76.7,71.9,29.85,South,184,9.0,14.7,85,0.00,,CLR,0.00,VWS V14.01,2013-08-25 12:20:00,
2013-08-25 07:30:00,77.0,71.8,29.85,South,189,8.0,16.8,84,0.00,,CLR,0.00,VWS V14.01,2013-08-25 12:30:00,
2013-08-25 07:40:00,77.0,71.8,29.85,South,180,4.0,11.5,84,0.00,,CLR,0.00,VWS V14.01,2013-08-25 12:40:00,
2013-08-25 07:45:00,77.2,72.0,29.85,SSW,211,10.0,12.6,84,0.00,,SCT120,0.00,VWS V14.01,2013-08-25 12:45:00,
2013-08-25 07:50:00,77.1,71.9,29.86,South,175,7.0,10.5,84,0.00,,SCT120,0.00,VWS V14.01,2013-08-25 12:50:00,
2013-08-25 07:55:00,77.0,71.8,29.86,South,186,4.0,10.5,84,0.00,,SCT120,0.00,VWS V14.01,2013-08-25 12:55:00,
2013-08-25 08:00:00,76.9,72.1,29.86,SSW,192,3.0,11.5,85,0.00,,SCT120,0.00,VWS V14.01,2013-08-25 13:00:00,
2013-08-25 08:05:00,76.9,72.1,29.86,SSW,204,2.0,10.5,85,0.00,,CLR,0.00,VWS V14.01,2013-08-25 13:05:00,
2013-08-25 08:10:00,77.0,72.2,29.86,SSW,207,3.0,9.4,85,0.00,,CLR,0.00,VWS V14.01,2013-08-25 13:10:00,
2013-08-25 08:20:00,77.4,72.2,29.87,SSW,207,4.0,9.4,84,0.00,,CLR,0.00,VWS V14.01,2013-08-25 13:20:00,
2013-08-25 08:25:00,77.7,72.5,29.86,SW,222,6.0,9.4,84,0.00,,CLR,0.00,VWS V14.01,2013-08-25 13:25:00,
2013-08-25 08:35:00,78.6,73.0,29.87,SSW,202,5.0,10.5,83,0.00,,CLR,0.00,VWS V14.01,2013-08-25 13:35:00,
2013-08-25 08:45:00,78.9,73.3,29.87,SSW,198,3.0,9.4,83,0.00,,CLR,0.00,VWS V14.01,2013-08-25 13:45:00,
2013-08-25 08:50:00,79.2,73.6,29.87,SSW,192,7.0,11.5,83,0.00,,CLR,0.00,VWS V14.01,2013-08-25 13:50:00,
2013-08-25 09:00:00,79.7,73.4,29.88,SW,230,3.0,7.3,81,0.00,,CLR,0.00,VWS V14.01,2013-08-25 14:00:00,
2013-08-25 09:05:00,79.9,73.9,29.88,SSE,161,6.0,7.3,82,0.00,,CLR,0.00,VWS V14.01,2013-08-25 14:05:00,
2013-08-25 09:10:00,80.2,73.8,29.88,SW,221,5.0,10.5,81,0.00,,CLR,0.00,VWS V14.01,2013-08-25 14:10:00,
2013-08-25 09:15:00,80.5,74.5,29.88,South,188,6.0,9.4,82,0.00,,CLR,0.00,VWS V14.01,2013-08-25 14:15:00,
2013-08-25 09:20:00,80.8,74.4,29.87,SSW,202,7.0,10.5,81,0.00,,CLR,0.00,VWS V14.01,2013-08-25 14:20:00,
2013-08-25 09:25:00,81.0,74.2,29.87,SW,218,8.0,10.5,80,0.00,,CLR,0.00,VWS V14.01,2013-08-25 14:25:00,
2013-08-25 09:30:00,81.2,74.1,29.88,South,185,4.0,12.6,79,0.00,,CLR,0.00,VWS V14.01,2013-08-25 14:30:00,
2013-08-25 09:35:00,81.6,74.8,29.87,SW,226,3.0,8.4,80,0.00,,CLR,0.00,VWS V14.01,2013-08-25 14:35:00,
2013-08-25 09:45:00,81.8,74.3,29.87,SW,223,7.0,13.6,78,0.00,,CLR,0.00,VWS V14.01,2013-08-25 14:45:00,
2013-08-25 09:50:00,81.7,74.2,29.86,SSW,195,13.0,16.8,78,0.00,,CLR,0.00,VWS V14.01,2013-08-25 14:50:00,
2013-08-25 09:55:00,81.8,74.3,29.86,SSW,203,6.0,13.6,78,0.00,,CLR,0.00,VWS V14.01,2013-08-25 14:55:00,
2013-08-25 10:00:00,82.1,74.6,29.86,South,188,7.0,14.7,78,0.00,,CLR,0.00,VWS V14.01,2013-08-25 15:00:00,
2013-08-25 10:05:00,82.3,74.8,29.85,SSW,193,7.0,17.8,78,0.00,,CLR,0.00,VWS V14.01,2013-08-25 15:05:00,
2013-08-25 10:15:00,82.8,74.9,29.86,SW,215,5.0,16.8,77,0.00,,CLR,0.00,VWS V14.01,2013-08-25 15:15:00,
2013-08-25 10:25:00,83.3,74.9,29.86,SSW,203,6.0,14.7,76,0.00,,CLR,0.00,VWS V14.01,2013-08-25 15:25:00,
2013-08-25 10:30:00,83.6,75.2,29.86,SSW,199,7.0,14.7,76,0.00,,CLR,0.00,VWS V14.01,2013-08-25 15:30:00,
2013-08-25 10:35:00,83.8,75.4,29.86,West,263,10.0,14.7,76,0.00,,CLR,0.00,VWS V14.01,2013-08-25 15:35:00,
2013-08-25 10:45:00,84.0,75.2,29.86,SSW,211,10.0,15.7,75,0.00,,CLR,0.00,VWS V14.01,2013-08-25 15:45:00,
2013-08-25 10:55:00,84.6,76.2,29.86,South,181,4.0,15.7,76,0.00,,CLR,0.00,VWS V14.01,2013-08-25 15:55:00,
2013-08-25 11:05:00,85.0,75.4,29.85,South,182,10.0,16.8,73,0.00,,CLR,0.00,VWS V14.01,2013-08-25 16:05:00,
2013-08-25 11:10:00,84.9,75.3,29.85,SW,216,12.0,17.8,73,0.00,,CLR,0.00,VWS V14.01,2013-08-25 16:10:00,
2013-08-25 11:15:00,85.3,76.9,29.85,SW,217,9.0,13.6,76,0.00,,CLR,0.00,VWS V14.01,2013-08-25 16:15:00,
2013-08-25 11:20:00,85.5,76.3,29.85,SSW,195,6.0,17.8,74,0.00,,CLR,0.00,VWS V14.01,2013-08-25 16:20:00,
2013-08-25 11:25:00,85.6,75.5,29.85,South,179,16.0,18.9,72,0.00,,CLR,0.00,VWS V14.01,2013-08-25 16:25:00,
2013-08-25 11:30:00,85.6,75.5,29.85,SW,223,5.0,16.8,72,0.00,,CLR,0.00,VWS V14.01,2013-08-25 16:30:00,
2013-08-25 11:40:00,85.7,75.6,29.86,SSW,194,9.0,15.7,72,0.00,,CLR,0.00,VWS V14.01,2013-08-25 16:40:00,
2013-08-25 11:45:00,85.9,75.8,29.85,South,191,6.0,14.7,72,0.00,,CLR,0.00,VWS V14.01,2013-08-25 16:45:00,
2013-08-25 11:50:00,86.1,76.0,29.86,SSW,206,15.0,15.7,72,0.00,,CLR,0.00,VWS V14.01,2013-08-25 16:50:00,
2013-08-25 11:55:00,86.2,75.7,29.85,South,190,7.0,16.8,71,0.00,,CLR,0.00,VWS V14.01,2013-08-25 16:55:00,
2013-08-25 12:00:00,86.5,76.8,29.85,SSW,194,10.0,14.7,73,0.00,,CLR,0.00,VWS V14.01,2013-08-25 17:00:00,
2013-08-25 12:10:00,86.9,76.4,29.85,WSW,242,13.0,16.8,71,0.00,,CLR,0.00,VWS V14.01,2013-08-25 17:10:00,
2013-08-25 12:15:00,87.0,76.5,29.85,SW,232,12.0,14.7,71,0.00,,CLR,0.00,VWS V14.01,2013-08-25 17:15:00,
2013-08-25 12:20:00,87.1,77.0,29.85,SSE,155,9.0,14.7,72,0.00,,CLR,0.00,VWS V14.01,2013-08-25 17:20:00,
2013-08-25 12:30:00,87.3,76.3,29.85,SSW,208,7.0,18.9,70,0.00,,CLR,0.00,VWS V14.01,2013-08-25 17:30:00,
2013-08-25 12:35:00,87.5,77.4,29.85,SSW,204,11.0,14.7,72,0.00,,CLR,0.00,VWS V14.01,2013-08-25 17:35:00,
2013-08-25 12:45:00,87.3,75.9,29.85,SW,234,7.0,16.8,69,0.00,,CLR,0.00,VWS V14.01,2013-08-25 17:45:00,
2013-08-25 12:50:00,87.2,76.7,29.85,SW,215,7.0,14.7,71,0.00,,CLR,0.00,VWS V14.01,2013-08-25 17:50:00,
2013-08-25 12:55:00,87.6,77.0,29.85,SSW,196,11.0,14.7,71,0.00,,CLR,0.00,VWS V14.01,2013-08-25 17:55:00,
2013-08-25 13:00:00,87.9,76.9,29.84,SSW,204,7.0,15.7,70,0.00,,CLR,0.00,VWS V14.01,2013-08-25 18:00:00,
2013-08-25 13:05:00,88.1,76.7,29.84,SW,221,11.0,14.7,69,0.00,,CLR,0.00,VWS V14.01,2013-08-25 18:05:00,
2013-08-25 13:10:00,88.1,76.7,29.84,SW,222,9.0,16.8,69,0.00,,CLR,0.00,VWS V14.01,2013-08-25 18:10:00,
2013-08-25 13:15:00,88.2,77.6,29.84,South,185,8.0,15.7,71,0.00,,CLR,0.00,VWS V14.01,2013-08-25 18:15:00,
2013-08-25 13:25:00,88.5,77.0,29.84,SW,225,12.0,13.6,69,0.00,,CLR,0.00,VWS V14.01,2013-08-25 18:25:00,
2013-08-25 13:30:00,88.7,77.2,29.83,SSW,198,8.0,12.6,69,0.00,,CLR,0.00,VWS V14.01,2013-08-25 18:30:00,
2013-08-25 13:40:00,89.0,77.5,29.83,SE,142,4.0,15.7,69,0.00,,CLR,0.00,VWS V14.01,2013-08-25 18:40:00,
2013-08-25 13:45:00,89.0,77.5,29.83,South,174,8.0,15.7,69,0.00,,CLR,0.00,VWS V14.01,2013-08-25 18:45:00,
2013-08-25 13:55:00,89.1,77.6,29.83,SSW,193,10.0,12.6,69,0.00,,CLR,0.00,VWS V14.01,2013-08-25 18:55:00,
2013-08-25 14:00:00,89.1,77.2,29.83,SSW,195,4.0,17.8,68,0.00,,CLR,0.00,VWS V14.01,2013-08-25 19:00:00,
2013-08-25 14:10:00,89.3,77.8,29.83,South,184,6.0,15.7,69,0.00,,CLR,0.00,VWS V14.01,2013-08-25 19:10:00,
2013-08-25 14:20:00,89.7,78.6,29.83,WSW,243,9.0,10.5,70,0.00,,CLR,0.00,VWS V14.01,2013-08-25 19:20:00,
2013-08-25 14:25:00,89.9,77.5,29.83,SSW,202,3.0,11.5,67,0.00,,CLR,0.00,VWS V14.01,2013-08-25 19:25:00,
2013-08-25 14:35:00,90.1,78.1,29.83,South,176,7.0,14.7,68,0.00,,CLR,0.00,VWS V14.01,2013-08-25 19:35:00,
2013-08-25 14:40:00,90.2,78.2,29.83,SSW,205,12.0,13.6,68,0.00,,CLR,0.00,VWS V14.01,2013-08-25 19:40:00,
2013-08-25 14:45:00,90.2,78.7,29.83,South,186,7.0,12.6,69,0.00,,CLR,0.00,VWS V14.01,2013-08-25 19:45:00,
2013-08-25 14:55:00,90.4,77.9,29.83,SSW,204,9.0,12.6,67,0.00,,CLR,0.00,VWS V14.01,2013-08-25 19:55:00,
2013-08-25 15:00:00,90.5,78.5,29.83,South,171,7.0,13.6,68,0.00,,CLR,0.00,VWS V14.01,2013-08-25 20:00:00,
2013-08-25 15:05:00,90.6,78.6,29.83,SSW,194,5.0,11.5,68,0.00,,CLR,0.00,VWS V14.01,2013-08-25 20:05:00,
2013-08-25 15:15:00,90.8,78.3,29.83,SW,229,4.0,15.7,67,0.00,,CLR,0.00,VWS V14.01,2013-08-25 20:15:00,
2013-08-25 15:20:00,90.7,78.2,29.83,SSW,200,9.0,15.7,67,0.00,,CLR,0.00,VWS V14.01,2013-08-25 20:20:00,
2013-08-25 15:25:00,90.6,77.7,29.83,SSW,195,10.0,14.7,66,0.00,,CLR,0.00,VWS V14.01,2013-08-25 20:25:00,
2013-08-25 15:30:00,90.6,78.1,29.83,SSW,198,10.0,17.8,67,0.00,,CLR,0.00,VWS V14.01,2013-08-25 20:30:00,
2013-08-25 15:35:00,90.6,78.1,29.82,SSE,164,10.0,15.7,67,0.00,,CLR,0.00,VWS V14.01,2013-08-25 20:35:00,
2013-08-25 15:40:00,90.6,77.7,29.82,SW,227,8.0,17.8,66,0.00,,CLR,0.00,VWS V14.01,2013-08-25 20:40:00,
2013-08-25 15:45:00,90.8,78.8,29.82,South,191,11.0,16.8,68,0.00,,CLR,0.00,VWS V14.01,2013-08-25 20:45:00,
2013-08-25 15:50:00,90.8,77.9,29.82,SW,220,6.0,14.7,66,0.00,,CLR,0.00,VWS V14.01,2013-08-25 20:50:00,
2013-08-25 15:55:00,90.8,78.3,29.82,SW,216,5.0,13.6,67,0.00,,CLR,0.00,VWS V14.01,2013-08-25 20:55:00,
2013-08-25 16:00:00,91.1,78.6,29.82,WSW,240,10.0,15.7,67,0.00,,CLR,0.00,VWS V14.01,2013-08-25 21:00:00,
2013-08-25 16:10:00,90.9,78.9,29.82,SSW,198,7.0,14.7,68,0.00,,CLR,0.00,VWS V14.01,2013-08-25 21:10:00,
2013-08-25 16:15:00,91.1,78.6,29.82,SW,227,7.0,16.8,67,0.00,,CLR,0.00,VWS V14.01,2013-08-25 21:15:00,
2013-08-25 16:25:00,90.8,78.3,29.82,SW,219,7.0,15.7,67,0.00,,CLR,0.00,VWS V14.01,2013-08-25 21:25:00,
2013-08-25 16:30:00,90.8,78.3,29.82,SW,226,6.0,14.7,67,0.00,,CLR,0.00,VWS V14.01,2013-08-25 21:30:00,
2013-08-25 16:35:00,90.8,78.3,29.82,SSW,213,8.0,13.6,67,0.00,,CLR,0.00,VWS V14.01,2013-08-25 21:35:00,
2013-08-25 16:40:00,90.9,78.9,29.82,SW,221,8.0,16.8,68,0.00,,CLR,0.00,VWS V14.01,2013-08-25 21:40:00,
2013-08-25 16:45:00,90.8,78.8,29.82,SW,223,6.0,13.6,68,0.00,,CLR,0.00,VWS V14.01,2013-08-25 21:45:00,
2013-08-25 16:55:00,90.6,78.6,29.81,SSE,160,4.0,15.7,68,0.00,,CLR,0.00,VWS V14.01,2013-08-25 21:55:00,
2013-08-25 17:00:00,90.6,78.6,29.81,SSW,199,8.0,15.7,68,0.00,,CLR,0.00,VWS V14.01,2013-08-25 22:00:00,
2013-08-25 17:05:00,90.5,78.5,29.81,South,187,6.0,13.6,68,0.00,,CLR,0.00,VWS V14.01,2013-08-25 22:05:00,
2013-08-25 17:20:00,90.3,78.8,29.82,SSW,202,10.0,13.6,69,0.00,,CLR,0.00,VWS V14.01,2013-08-25 22:20:00,
2013-08-25 17:30:00,90.3,79.2,29.82,South,185,7.0,14.7,70,0.00,,CLR,0.00,VWS V14.01,2013-08-25 22:30:00,
2013-08-25 17:40:00,90.2,79.1,29.82,South,177,6.0,12.6,70,0.00,,CLR,0.00,VWS V14.01,2013-08-25 22:40:00,
2013-08-25 17:50:00,90.1,79.0,29.82,South,185,7.0,12.6,70,0.00,,CLR,0.00,VWS V14.01,2013-08-25 22:50:00,
2013-08-25 18:00:00,89.8,78.7,29.82,SSE,165,9.0,13.6,70,0.00,,CLR,0.00,VWS V14.01,2013-08-25 23:00:00,
2013-08-25 18:05:00,89.5,78.4,29.82,SSW,209,7.0,13.6,70,0.00,,CLR,0.00,VWS V14.01,2013-08-25 23:05:00,
2013-08-25 18:15:00,89.4,78.8,29.82,South,175,3.0,12.6,71,0.00,,CLR,0.00,VWS V14.01,2013-08-25 23:15:00,
2013-08-25 18:20:00,89.3,78.7,29.82,SSW,197,6.0,12.6,71,0.00,,CLR,0.00,VWS V14.01,2013-08-25 23:20:00,
2013-08-25 18:25:00,89.2,79.0,29.82,SW,219,1.0,11.5,72,0.00,,CLR,0.00,VWS V14.01,2013-08-25 23:25:00,
2013-08-25 18:35:00,88.9,78.7,29.82,SSW,194,8.0,11.5,72,0.00,,CLR,0.00,VWS V14.01,2013-08-25 23:35:00,
2013-08-25 18:45:00,88.7,78.9,29.82,South,173,9.0,9.4,73,0.00,,CLR,0.00,VWS V14.01,2013-08-25 23:45:00,
2013-08-25 18:50:00,88.6,78.8,29.82,SSW,198,5.0,12.6,73,0.00,,CLR,0.00,VWS V14.01,2013-08-25 23:50:00,
2013-08-25 18:55:00,88.1,77.9,29.82,SSW,209,5.0,11.5,72,0.00,,CLR,0.00,VWS V14.01,2013-08-25 23:55:00,
2013-08-25 19:00:00,87.7,78.0,29.82,South,170,4.0,12.6,73,0.00,,CLR,0.00,VWS V14.01,2013-08-26 00:00:00,
2013-08-25 19:05:00,87.5,77.8,29.82,SSW,213,5.0,9.4,73,0.00,,CLR,0.00,VWS V14.01,2013-08-26 00:05:00,
2013-08-25 19:15:00,87.2,77.9,29.82,SW,214,3.0,11.5,74,0.00,,CLR,0.00,VWS V14.01,2013-08-26 00:15:00,
2013-08-25 19:20:00,86.9,78.0,29.82,South,190,7.0,8.4,75,0.00,,CLR,0.00,VWS V14.01,2013-08-26 00:20:00,
2013-08-25 19:25:00,86.6,78.1,29.82,SSW,192,4.0,9.4,76,0.00,,CLR,0.00,VWS V14.01,2013-08-26 00:25:00,
2013-08-25 19:35:00,85.9,77.9,29.82,South,184,4.0,8.4,77,0.00,,CLR,0.00,VWS V14.01,2013-08-26 00:35:00,
2013-08-25 19:40:00,85.7,77.7,29.82,SSW,209,6.0,9.4,77,0.00,,CLR,0.00,VWS V14.01,2013-08-26 00:40:00,
2013-08-25 19:50:00,85.2,77.9,29.82,SSW,213,1.0,6.3,79,0.00,,CLR,0.00,VWS V14.01,2013-08-26 00:50:00,
2013-08-25 19:55:00,84.8,77.9,29.82,SW,216,4.0,6.3,80,0.00,,CLR,0.00,VWS V14.01,2013-08-26 00:55:00,
2013-08-25 20:05:00,84.3,77.5,29.82,SW,217,5.0,10.5,80,0.00,,CLR,0.00,VWS V14.01,2013-08-26 01:05:00,
2013-08-25 20:10:00,84.2,77.4,29.82,SSW,203,4.0,10.5,80,0.00,,CLR,0.00,VWS V14.01,2013-08-26 01:10:00,
2013-08-25 20:15:00,83.9,77.1,29.83,SSW,198,6.0,6.3,80,0.00,,CLR,0.00,VWS V14.01,2013-08-26 01:15:00,
2013-08-25 20:25:00,83.5,77.1,29.83,SW,215,5.0,8.4,81,0.00,,CLR,0.00,VWS V14.01,2013-08-26 01:25:00,
2013-08-25 20:30:00,83.3,76.9,29.83,SSW,212,2.0,7.3,81,0.00,,CLR,0.00,VWS V14.01,2013-08-26 01:30:00,
2013-08-25 20:35:00,83.0,76.9,29.83,SSW,202,0.0,5.2,82,0.00,,CLR,0.00,VWS V14.01,2013-08-26 01:35:00,
2013-08-25 20:40:00,82.8,77.1,29.83,SSW,199,3.0,6.3,83,0.00,,CLR,0.00,VWS V14.01,2013-08-26 01:40:00,
2013-08-25 20:45:00,82.6,76.9,29.83,SSW,196,3.0,6.3,83,0.00,,CLR,0.00,VWS V14.01,2013-08-26 01:45:00,
2013-08-25 20:50:00,82.5,76.8,29.84,SSW,209,4.0,9.4,83,0.00,,CLR,0.00,VWS V14.01,2013-08-26 01:50:00,
2013-08-25 20:55:00,82.5,76.8,29.84,SSW,211,4.0,8.4,83,0.00,,CLR,0.00,VWS V14.01,2013-08-26 01:55:00,
2013-08-25 21:00:00,82.3,76.6,29.84,SSW,204,3.0,6.3,83,0.00,,CLR,0.00,VWS V14.01,2013-08-26 02:00:00,
2013-08-25 21:10:00,81.9,76.6,29.85,SSW,200,3.0,6.3,84,0.00,,CLR,0.00,VWS V14.01,2013-08-26 02:10:00,
2013-08-25 21:20:00,81.5,76.6,29.85,SSW,207,3.0,5.2,85,0.00,,CLR,0.00,VWS V14.01,2013-08-26 02:20:00,
2013-08-25 21:30:00,81.1,76.2,29.85,SSW,196,1.0,5.2,85,0.00,,CLR,0.00,VWS V14.01,2013-08-26 02:30:00,
2013-08-25 22:25:00,79.7,75.8,29.86,South,178,1.0,1.0,88,0.00,,CLR,0.00,VWS V14.01,2013-08-26 03:25:00,
2013-08-25 22:35:00,79.5,75.6,29.86,South,178,0.0,2.1,88,0.00,,CLR,0.00,VWS V14.01,2013-08-26 03:35:00,
2013-08-25 22:40:00,79.4,75.9,29.86,South,173,2.0,3.1,89,0.00,,CLR,0.00,VWS V14.01,2013-08-26 03:40:00,
2013-08-25 22:50:00,79.3,75.8,29.86,SSE,168,1.0,2.1,89,0.00,,CLR,0.00,VWS V14.01,2013-08-26 03:50:00,
2013-08-25 22:55:00,79.3,75.8,29.86,SSE,167,0.0,3.1,89,0.00,,CLR,0.00,VWS V14.01,2013-08-26 03:55:00,
2013-08-25 23:05:00,79.1,75.6,29.86,SSE,166,0.0,4.2,89,0.00,,CLR,0.00,VWS V14.01,2013-08-26 04:05:00,
2013-08-25 23:10:00,79.0,75.8,29.86,SSE,150,1.0,5.2,90,0.00,,CLR,0.00,VWS V14.01,2013-08-26 04:10:00,
2013-08-25 23:20:00,78.8,75.6,29.86,SSE,153,0.0,2.1,90,0.00,,CLR,0.00,VWS V14.01,2013-08-26 04:20:00,
2013-08-25 23:30:00,78.5,75.7,29.86,SSE,160,1.0,4.2,91,0.00,,CLR,0.00,VWS V14.01,2013-08-26 04:30:00,
2013-08-25 23:35:00,78.5,75.7,29.86,South,178,0.0,3.1,91,0.00,,CLR,0.00,VWS V14.01,2013-08-26 04:35:00,
2013-08-25 23:40:00,78.4,75.6,29.86,South,178,1.0,3.1,91,0.00,,CLR,0.00,VWS V14.01,2013-08-26 04:40:00,
2013-08-25 23:50:00,78.4,75.6,29.86,South,171,2.0,2.1,91,0.00,,CLR,0.00,VWS V14.01,2013-08-26 04:50:00,
2013-08-25 23:55:00,78.4,75.6,29.86,South,173,0.0,4.2,91,0.00,,CLR,0.00,VWS V14.01,2013-08-26 04:55:00,